Location: Chiroubles
(46.1812°N, 4.6660°E)
Time: 03:14:56
(UTC+00:00)

Explorer 7 - Pass Details

Date: 26 November 2020
Orbit: 484 x 678 km, 50.3° (Epoch: 25 January)

Event Time Altitude Azimuth Distance (km) Brightness Sun altitude
Exits shadow 06:04:42 12° 293° (WNW) 1,703 8.6 -9.1°
Maximum altitude 06:08:23 48° 7° (N) 698 7.2 -8.5°
Drops below altitude 10° 06:12:13 10° 83° (E) 1,737 10.5 -7.9°
Sets 06:14:24 0° 89° (E) 2,598 11.7 -7.5°
